Home > Weather > Erie > Past weeks

Flag for USA Weather for the Past 2 Weeks in Erie, Pennsylvania, USA

Now
45 °F

Clear.


Feels Like: 45 °F
Forecast: 43 / 53 °F
Wind: No wind

Location: Erie International Airport

Current Time: May 2, 2016 at 10:21:51 PM

Latest Report: May 2, 2016 at 9:51 PM


Visibility: 10 mi

Pressure: 29.99 "Hg

Humidity: 86%

Dew Point: 41 °F

Location of ErieLocation

Historic Weather in Erie — Graph

°F

Erie Temperature Yesterday

Maximum temperature yesterday: 59 °F (at 10:51 AM)
Minimum temperature yesterday: 45 °F (at 9:51 PM)
Average temperature yesterday: 50 °F

High & Low Weather Summary for the Past Weeks

 TemperatureHumidityPressure
High70 °F (Apr 18, 5:51 PM)97% (Apr 26, 6:51 AM)30.36 "Hg (Apr 26, 6:51 AM)
Low33 °F (Apr 27, 6:51 AM)24% (Apr 17, 8:51 PM)29.66 "Hg (Apr 26, 5:51 AM)
Average50 °F68%30.04 "Hg
* Reported Apr 17 8:51 PM — May 2 8:51 PM, Erie, Weather by CustomWeather, © 2016

Note: Actual official high and low records may vary slightly from our data, if they occured in-between our weather recording intervals... More about our weather records

Advertising

Erie Weather History for the Previous 24 Hours

Scroll right to see more
 ConditionsComfort  
Time TempWeatherWind HumidityBarometerVisibility
8:51 PM
Mon, May 2
46 °FSunny.5 mph83%29.98 "Hg10 mi
7:51 PM47 °FSunny.5 mph83%29.99 "Hg10 mi
6:51 PM47 °FSunny.6 mph80%29.99 "Hg10 mi
5:51 PM47 °FSunny.9 mph80%29.99 "Hg10 mi
4:51 PM49 °FSunny.8 mph77%30.00 "Hg10 mi
3:51 PM49 °FPartly sunny.8 mph74%30.03 "Hg10 mi
2:51 PM49 °FMostly cloudy.14 mph77%30.00 "Hg10 mi
1:51 PM48 °FOvercast.14 mph80%30.01 "Hg10 mi
1:01 PM45 °FLow clouds.9 mph90%30.01 "Hg9 mi
11:51 AM44 °FFog.10 mph96%30.02 "Hg2 mi
10:51 AM44 °FLow clouds.9 mph93%30.00 "Hg8 mi
9:51 AM45 °FLow clouds.10 mph93%29.98 "Hg8 mi
8:59 AM45 °FFog.10 mph97%29.93 "Hg5 mi
7:51 AM44 °FFog.16 mph96%29.89 "Hg1 mi
6:51 AM44 °FLow clouds.10 mph93%29.94 "Hg10 mi
5:51 AM45 °FRain. Fog.10 mph93%29.93 "Hg3 mi
4:51 AM45 °FFog.8 mph97%29.88 "Hg6 mi
3:59 AM45 °FRain. Fog.3 mph93%29.93 "Hg2 mi
2:57 AM45 °FLight rain. Fog.9 mph97%29.93 "Hg2 mi
1:51 AM45 °FFog.7 mph97%29.96 "Hg4 mi
12:51 AM45 °FFog.9 mph97%29.98 "Hg2 mi
11:51 PM
Sun, May 1
46 °FFog.7 mph93%29.98 "Hg5 mi
10:51 PM45 °FFog.12 mph97%30.01 "Hg2 mi
Weather by CustomWeather, © 2016

See weather overviewHow to use our weather pages